User: anonymous   Login
Location: UBC Liquid-Mirror Observatory
(49.2876°N, 122.5728°W)
Time: 13:02:04
(UTC-08:00)
Language:

Cosmos 1315 - Orbit

View from above orbital plane
View from above orbital plane
View from above satellite
View from above satellite

Ground track
Ground track

The orbit data is extracted from the following two-line orbital elements,

1 12903U 81103A   14352.66321339  .00053274  00000-0  70421-3 0  3673
2 12903 081.1317 282.4033 0005227 044.7719 315.4474 15.58290600818920
Epoch (UTC): 18 December 2014 15:55:01
Eccentricity: 0.0005227
inclination: 81.1317°
perigee height: 389 km
apogee height: 396 km
right ascension of ascending node: 282.4033°
argument of perigee: 44.7719°
revolutions per day: 15.58290600
mean anomaly at epoch: 315.4474°
orbit number at epoch: 81892

The dashed part of the orbit path shows where the satellite is in the earth's shadow,  

DLR